owner,sensor,date,latitude,longitude,vertical_datum,wind_speed,wind_to_direction,wind_speed_of_gust,qcFlag 
LUMCON,ioos:station:LUMCON:102:1,2016-05-01T00:00:00Z,29.1870,-90.6093,0.0,11.0,129.0,-9999.0,'1111122,1111122,1111122' 
LUMCON,ioos:station:LUMCON:102:1,2016-05-01T00:15:00Z,29.1870,-90.6093,0.0,11.3,149.0,-9999.0,'1111122,1111122,1111122' 
LUMCON,ioos:station:LUMCON:102:1,2016-05-01T00:30:00Z,29.1870,-90.6093,0.0,13.2,155.0,-9999.0,'1111122,1111122,1111122' 
LUMCON,ioos:station:LUMCON:102:1,2016-05-01T00:45:00Z,29.1870,-90.6093,0.0,11.3,160.0,-9999.0,'1111122,1111122,1111122' 
LUMCON,ioos:station:LUMCON:102:1,2016-05-01T01:00:00Z,29.1870,-90.6093,0.0,11.5,166.0,-9999.0,'1111122,1111122,1111122' 
LUMCON,ioos:station:LUMCON:102:1,2016-05-01T01:15:00Z,29.1870,-90.6093,0.0,13.9,159.0,-9999.0,'1111122,1111122,1111122' 
LUMCON,ioos:station:LUMCON:102:1,2016-05-01T01:30:00Z,29.1870,-90.6093,0.0,13.3,159.0,-9999.0,'1111122,1111122,1111122' 
LUMCON,ioos:station:LUMCON:102:1,2016-05-01T01:45:00Z,29.1870,-90.6093,0.0,12.2,167.0,-9999.0,'1111122,1111122,1111122' 
LUMCON,ioos:station:LUMCON:102:1,2016-05-01T02:00:00Z,29.1870,-90.6093,0.0,14.6,169.0,-9999.0,'1111122,1111122,1111122' 
LUMCON,ioos:station:LUMCON:102:1,2016-05-01T02:15:00Z,29.1870,-90.6093,0.0,14.8,166.0,-9999.0,'1111122,1111122,1111122' 
LUMCON,ioos:station:LUMCON:102:1,2016-05-01T02:30:00Z,29.1870,-90.6093,0.0,12.5,173.0,-9999.0,'1111122,1111122,1111122' 
LUMCON,ioos:station:LUMCON:102:1,2016-05-01T02:45:00Z,29.1870,-90.6093,0.0,11.8,177.0,-9999.0,'1111122,1111122,1111122' 
LUMCON,ioos:station:LUMCON:102:1,2016-05-01T03:00:00Z,29.1870,-90.6093,0.0,13.6,172.0,-9999.0,'1111122,1111122,1111122' 
LUMCON,ioos:station:LUMCON:102:1,2016-05-01T03:15:00Z,29.1870,-90.6093,0.0,13.8,177.0,-9999.0,'1111122,1111122,1111122' 
LUMCON,ioos:station:LUMCON:102:1,2016-05-01T03:30:00Z,29.1870,-90.6093,0.0,12.1,185.0,-9999.0,'1111122,1111122,1111122' 
LUMCON,ioos:station:LUMCON:102:1,2016-05-01T03:45:00Z,29.1870,-90.6093,0.0,12.0,179.0,-9999.0,'1111122,1111122,1111122' 
LUMCON,ioos:station:LUMCON:102:1,2016-05-01T04:00:00Z,29.1870,-90.6093,0.0,12.4,183.0,-9999.0,'1111122,1111122,1111122' 
LUMCON,ioos:station:LUMCON:102:1,2016-05-01T04:15:00Z,29.1870,-90.6093,0.0,10.7,187.0,-9999.0,'1111122,1111122,1111122' 
LUMCON,ioos:station:LUMCON:102:1,2016-05-01T04:30:00Z,29.1870,-90.6093,0.0,11.4,188.0,-9999.0,'1111122,1111122,1111122' 
LUMCON,ioos:station:LUMCON:102:1,2016-05-01T04:45:00Z,29.1870,-90.6093,0.0,11.4,194.0,-9999.0,'1111122,1111122,1111122' 
LUMCON,ioos:station:LUMCON:102:1,2016-05-01T05:00:00Z,29.1870,-90.6093,0.0,13.3,196.0,-9999.0,'1111122,1111122,1111122' 
LUMCON,ioos:station:LUMCON:102:1,2016-05-01T05:15:00Z,29.1870,-90.6093,0.0,10.5,192.0,-9999.0,'1111122,1111122,1111122' 
LUMCON,ioos:station:LUMCON:102:1,2016-05-01T05:30:00Z,29.1870,-90.6093,0.0,10.0,194.0,-9999.0,'1111122,1111122,1111122' 
LUMCON,ioos:station:LUMCON:102:1,2016-05-01T05:45:00Z,29.1870,-90.6093,0.0,10.4,199.0,-9999.0,'1111122,1111122,1111122' 
LUMCON,ioos:station:LUMCON:102:1,2016-05-01T06:00:00Z,29.1870,-90.6093,0.0,10.5,193.0,-9999.0,'1111122,1111122,1111122' 
LUMCON,ioos:station:LUMCON:102:1,2016-05-01T06:15:00Z,29.1870,-90.6093,0.0,10.6,190.0,-9999.0,'1111122,1111122,1111122' 
LUMCON,ioos:station:LUMCON:102:1,2016-05-01T06:30:00Z,29.1870,-90.6093,0.0,9.3,193.0,-9999.0,'1111122,1111122,1111122' 
LUMCON,ioos:station:LUMCON:102:1,2016-05-01T06:45:00Z,29.1870,-90.6093,0.0,8.1,195.0,-9999.0,'1111122,1111122,1111122' 
LUMCON,ioos:station:LUMCON:102:1,2016-05-01T07:00:00Z,29.1870,-90.6093,0.0,11.4,194.0,-9999.0,'1111122,1111122,1111122' 
LUMCON,ioos:station:LUMCON:102:1,2016-05-01T07:15:00Z,29.1870,-90.6093,0.0,11.5,196.0,-9999.0,'1111122,1111122,1111122' 
LUMCON,ioos:station:LUMCON:102:1,2016-05-01T07:30:00Z,29.1870,-90.6093,0.0,10.1,193.0,-9999.0,'1111122,1111122,1111122' 
LUMCON,ioos:station:LUMCON:102:1,2016-05-01T07:45:00Z,29.1870,-90.6093,0.0,10.4,203.0,-9999.0,'1111122,1111122,1111122' 
LUMCON,ioos:station:LUMCON:102:1,2016-05-01T08:00:00Z,29.1870,-90.6093,0.0,9.8,206.0,-9999.0,'1111122,1111122,1111122' 
LUMCON,ioos:station:LUMCON:102:1,2016-05-01T08:15:00Z,29.1870,-90.6093,0.0,9.2,209.0,-9999.0,'1111122,1111122,1111122' 
LUMCON,ioos:station:LUMCON:102:1,2016-05-01T08:30:00Z,29.1870,-90.6093,0.0,9.8,205.0,-9999.0,'1111122,1111122,1111122' 
LUMCON,ioos:station:LUMCON:102:1,2016-05-01T08:45:00Z,29.1870,-90.6093,0.0,10.7,210.0,-9999.0,'1111122,1111122,1111122' 
LUMCON,ioos:station:LUMCON:102:1,2016-05-01T09:00:00Z,29.1870,-90.6093,0.0,10.2,209.0,-9999.0,'1111122,1111122,1111122' 
LUMCON,ioos:station:LUMCON:102:1,2016-05-01T09:15:00Z,29.1870,-90.6093,0.0,9.9,206.0,-9999.0,'1111122,1111122,1111122' 
LUMCON,ioos:station:LUMCON:102:1,2016-05-01T09:30:00Z,29.1870,-90.6093,0.0,9.3,210.0,-9999.0,'1111122,1111122,1111122' 
LUMCON,ioos:station:LUMCON:102:1,2016-05-01T09:45:00Z,29.1870,-90.6093,0.0,9.6,213.0,-9999.0,'1111122,1111122,1111122' 
LUMCON,ioos:station:LUMCON:102:1,2016-05-01T10:00:00Z,29.1870,-90.6093,0.0,8.3,205.0,-9999.0,'1111122,1111122,1111122' 
LUMCON,ioos:station:LUMCON:102:1,2016-05-01T10:15:00Z,29.1870,-90.6093,0.0,9.5,208.0,-9999.0,'1111122,1111122,1111122' 
LUMCON,ioos:station:LUMCON:102:1,2016-05-01T10:30:00Z,29.1870,-90.6093,0.0,9.3,207.0,-9999.0,'1111122,1111122,1111122' 
LUMCON,ioos:station:LUMCON:102:1,2016-05-01T10:45:00Z,29.1870,-90.6093,0.0,9.8,212.0,-9999.0,'1111122,1111122,1111122' 
LUMCON,ioos:station:LUMCON:102:1,2016-05-01T11:00:00Z,29.1870,-90.6093,0.0,9.2,212.0,-9999.0,'1111122,1111122,1111122' 
LUMCON,ioos:station:LUMCON:102:1,2016-05-01T11:15:00Z,29.1870,-90.6093,0.0,8.6,208.0,-9999.0,'1111122,1111122,1111122' 
LUMCON,ioos:station:LUMCON:102:1,2016-05-01T11:30:00Z,29.1870,-90.6093,0.0,7.9,210.0,-9999.0,'1111122,1111122,1111122' 
LUMCON,ioos:station:LUMCON:102:1,2016-05-01T11:45:00Z,29.1870,-90.6093,0.0,6.7,210.0,-9999.0,'1111122,1111122,1111122' 
LUMCON,ioos:station:LUMCON:102:1,2016-05-01T12:00:00Z,29.1870,-90.6093,0.0,8.4,209.0,-9999.0,'1111122,1111122,1111122' 
LUMCON,ioos:station:LUMCON:102:1,2016-05-01T12:15:00Z,29.1870,-90.6093,0.0,8.8,208.0,-9999.0,'1111122,1111122,1111122' 
LUMCON,ioos:station:LUMCON:102:1,2016-05-01T12:30:00Z,29.1870,-90.6093,0.0,8.0,203.0,-9999.0,'1111122,1111122,1111122' 
LUMCON,ioos:station:LUMCON:102:1,2016-05-01T12:45:00Z,29.1870,-90.6093,0.0,8.3,195.0,-9999.0,'1111122,1111122,1111122' 
LUMCON,ioos:station:LUMCON:102:1,2016-05-01T13:00:00Z,29.1870,-90.6093,0.0,9.0,196.0,-9999.0,'1111122,1111122,1111122' 
LUMCON,ioos:station:LUMCON:102:1,2016-05-01T13:15:00Z,29.1870,-90.6093,0.0,9.9,198.0,-9999.0,'1111122,1111122,1111122' 
LUMCON,ioos:station:LUMCON:102:1,2016-05-01T13:30:00Z,29.1870,-90.6093,0.0,10.0,200.0,-9999.0,'1111122,1111122,1111122' 
LUMCON,ioos:station:LUMCON:102:1,2016-05-01T13:45:00Z,29.1870,-90.6093,0.0,7.9,205.0,-9999.0,'1111122,1111122,1111122' 
LUMCON,ioos:station:LUMCON:102:1,2016-05-01T14:00:00Z,29.1870,-90.6093,0.0,8.2,199.0,-9999.0,'1111122,1111122,1111122' 
LUMCON,ioos:station:LUMCON:102:1,2016-05-01T14:15:00Z,29.1870,-90.6093,0.0,11.3,210.0,-9999.0,'1111122,1111122,1111122' 
LUMCON,ioos:station:LUMCON:102:1,2016-05-01T14:30:00Z,29.1870,-90.6093,0.0,17.0,224.0,-9999.0,'1111122,1111122,1111122' 
LUMCON,ioos:station:LUMCON:102:1,2016-05-01T14:45:00Z,29.1870,-90.6093,0.0,11.6,204.0,-9999.0,'1111122,1111122,1111122' 
LUMCON,ioos:station:LUMCON:102:1,2016-05-01T15:00:00Z,29.1870,-90.6093,0.0,10.2,210.0,-9999.0,'1111122,1111122,1111122' 
LUMCON,ioos:station:LUMCON:102:1,2016-05-01T15:15:00Z,29.1870,-90.6093,0.0,10.9,209.0,-9999.0,'1111122,1111122,1111122' 
LUMCON,ioos:station:LUMCON:102:1,2016-05-01T15:30:00Z,29.1870,-90.6093,0.0,10.1,211.0,-9999.0,'1111122,1111122,1111122' 
LUMCON,ioos:station:LUMCON:102:1,2016-05-01T15:45:00Z,29.1870,-90.6093,0.0,10.4,215.0,-9999.0,'1111122,1111122,1111122' 
LUMCON,ioos:station:LUMCON:102:1,2016-05-01T16:00:00Z,29.1870,-90.6093,0.0,11.9,214.0,-9999.0,'1111122,1111122,1111122' 
LUMCON,ioos:station:LUMCON:102:1,2016-05-01T16:15:00Z,29.1870,-90.6093,0.0,10.5,216.0,-9999.0,'1111122,1111122,1111122' 
LUMCON,ioos:station:LUMCON:102:1,2016-05-01T16:30:00Z,29.1870,-90.6093,0.0,9.3,210.0,-9999.0,'1111122,1111122,1111122' 
LUMCON,ioos:station:LUMCON:102:1,2016-05-01T16:45:00Z,29.1870,-90.6093,0.0,5.7,217.0,-9999.0,'1111122,1111122,1111122' 
LUMCON,ioos:station:LUMCON:102:1,2016-05-01T17:00:00Z,29.1870,-90.6093,0.0,4.1,210.0,-9999.0,'1111122,1111122,1111122' 
LUMCON,ioos:station:LUMCON:102:1,2016-05-01T17:15:00Z,29.1870,-90.6093,0.0,3.0,187.0,-9999.0,'1111122,1111122,1111122' 
LUMCON,ioos:station:LUMCON:102:1,2016-05-01T17:30:00Z,29.1870,-90.6093,0.0,10.2,60.0,-9999.0,'1111122,1111122,1111122' 
LUMCON,ioos:station:LUMCON:102:1,2016-05-01T18:15:00Z,29.1870,-90.6093,0.0,12.8,100.0,-9999.0,'1111122,1111122,1111122' 
LUMCON,ioos:station:LUMCON:102:1,2016-05-01T18:30:00Z,29.1870,-90.6093,0.0,11.9,82.0,-9999.0,'1111122,1111122,1111122' 
LUMCON,ioos:station:LUMCON:102:1,2016-05-01T18:45:00Z,29.1870,-90.6093,0.0,10.8,80.0,-9999.0,'1111122,1111122,1111122' 
LUMCON,ioos:station:LUMCON:102:1,2016-05-01T19:00:00Z,29.1870,-90.6093,0.0,10.9,41.0,-9999.0,'1111122,1111122,1111122' 
LUMCON,ioos:station:LUMCON:102:1,2016-05-01T19:15:00Z,29.1870,-90.6093,0.0,12.7,68.0,-9999.0,'1111122,1111122,1111122' 
LUMCON,ioos:station:LUMCON:102:1,2016-05-01T19:30:00Z,29.1870,-90.6093,0.0,8.8,85.0,-9999.0,'1111122,1111122,1111122' 
LUMCON,ioos:station:LUMCON:102:1,2016-05-01T19:45:00Z,29.1870,-90.6093,0.0,8.6,100.0,-9999.0,'1111122,1111122,1111122' 
LUMCON,ioos:station:LUMCON:102:1,2016-05-01T20:00:00Z,29.1870,-90.6093,0.0,10.1,83.0,-9999.0,'1111122,1111122,1111122' 
LUMCON,ioos:station:LUMCON:102:1,2016-05-01T20:15:00Z,29.1870,-90.6093,0.0,8.7,70.0,-9999.0,'1111122,1111122,1111122' 
LUMCON,ioos:station:LUMCON:102:1,2016-05-01T20:30:00Z,29.1870,-90.6093,0.0,11.7,72.0,-9999.0,'1111122,1111122,1111122' 
LUMCON,ioos:station:LUMCON:102:1,2016-05-01T20:45:00Z,29.1870,-90.6093,0.0,11.0,84.0,-9999.0,'1111122,1111122,1111122' 
LUMCON,ioos:station:LUMCON:102:1,2016-05-01T21:00:00Z,29.1870,-90.6093,0.0,10.5,75.0,-9999.0,'1111122,1111122,1111122' 
LUMCON,ioos:station:LUMCON:102:1,2016-05-01T21:15:00Z,29.1870,-90.6093,0.0,12.0,94.0,-9999.0,'1111122,1111122,1111122' 
LUMCON,ioos:station:LUMCON:102:1,2016-05-01T21:30:00Z,29.1870,-90.6093,0.0,11.5,106.0,-9999.0,'1111122,1111122,1111122' 
LUMCON,ioos:station:LUMCON:102:1,2016-05-01T21:45:00Z,29.1870,-90.6093,0.0,10.8,90.0,-9999.0,'1111122,1111122,1111122' 
LUMCON,ioos:station:LUMCON:102:1,2016-05-01T22:00:00Z,29.1870,-90.6093,0.0,9.5,94.0,-9999.0,'1111122,1111122,1111122' 
LUMCON,ioos:station:LUMCON:102:1,2016-05-01T22:15:00Z,29.1870,-90.6093,0.0,11.3,110.0,-9999.0,'1111122,1111122,1111122' 
LUMCON,ioos:station:LUMCON:102:1,2016-05-01T22:30:00Z,29.1870,-90.6093,0.0,10.6,108.0,-9999.0,'1111122,1111122,1111122' 
LUMCON,ioos:station:LUMCON:102:1,2016-05-01T23:00:00Z,29.1870,-90.6093,0.0,11.7,124.0,-9999.0,'1111122,1111122,1111122' 
LUMCON,ioos:station:LUMCON:102:1,2016-05-01T23:15:00Z,29.1870,-90.6093,0.0,13.8,130.0,-9999.0,'1111122,1111122,1111122' 
LUMCON,ioos:station:LUMCON:102:1,2016-05-01T23:30:00Z,29.1870,-90.6093,0.0,12.0,128.0,-9999.0,'1111122,1111122,1111122' 
LUMCON,ioos:station:LUMCON:102:1,2016-05-01T23:45:00Z,29.1870,-90.6093,0.0,13.1,114.0,-9999.0,'1111122,1111122,1111122' 
LUMCON,ioos:station:LUMCON:102:1,2016-05-02T00:00:00Z,29.1870,-90.6093,0.0,13.4,123.0,-9999.0,'1111122,1111122,1111122' 
LUMCON,ioos:station:LUMCON:102:1,2016-05-02T00:30:00Z,29.1870,-90.6093,0.0,9.2,142.0,-9999.0,'1111122,1111122,1111122' 
LUMCON,ioos:station:LUMCON:102:1,2016-05-02T00:45:00Z,29.1870,-90.6093,0.0,12.6,131.0,-9999.0,'1111122,1111122,1111122' 
LUMCON,ioos:station:LUMCON:102:1,2016-05-02T01:00:00Z,29.1870,-90.6093,0.0,13.3,137.0,-9999.0,'1111122,1111122,1111122' 
LUMCON,ioos:station:LUMCON:102:1,2016-05-02T01:15:00Z,29.1870,-90.6093,0.0,12.1,137.0,-9999.0,'1111122,1111122,1111122' 
LUMCON,ioos:station:LUMCON:102:1,2016-05-02T01:30:00Z,29.1870,-90.6093,0.0,12.9,143.0,-9999.0,'1111122,1111122,1111122' 
LUMCON,ioos:station:LUMCON:102:1,2016-05-02T01:45:00Z,29.1870,-90.6093,0.0,12.0,142.0,-9999.0,'1111122,1111122,1111122' 
LUMCON,ioos:station:LUMCON:102:1,2016-05-02T02:00:00Z,29.1870,-90.6093,0.0,9.6,158.0,-9999.0,'1111122,1111122,1111122' 
LUMCON,ioos:station:LUMCON:102:1,2016-05-02T02:30:00Z,29.1870,-90.6093,0.0,11.9,172.0,-9999.0,'1111122,1111122,1111122' 
LUMCON,ioos:station:LUMCON:102:1,2016-05-02T02:45:00Z,29.1870,-90.6093,0.0,11.7,176.0,-9999.0,'1111122,1111122,1111122' 
LUMCON,ioos:station:LUMCON:102:1,2016-05-02T03:00:00Z,29.1870,-90.6093,0.0,10.7,173.0,-9999.0,'1111122,1111122,1111122' 
LUMCON,ioos:station:LUMCON:102:1,2016-05-02T03:15:00Z,29.1870,-90.6093,0.0,14.7,181.0,-9999.0,'1111122,1111122,1111122' 
LUMCON,ioos:station:LUMCON:102:1,2016-05-02T03:30:00Z,29.1870,-90.6093,0.0,11.8,186.0,-9999.0,'1111122,1111122,1111122' 
LUMCON,ioos:station:LUMCON:102:1,2016-05-02T03:45:00Z,29.1870,-90.6093,0.0,12.6,190.0,-9999.0,'1111122,1111122,1111122' 
LUMCON,ioos:station:LUMCON:102:1,2016-05-02T04:00:00Z,29.1870,-90.6093,0.0,13.3,192.0,-9999.0,'1111122,1111122,1111122' 
LUMCON,ioos:station:LUMCON:102:1,2016-05-02T04:15:00Z,29.1870,-90.6093,0.0,13.7,191.0,-9999.0,'1111122,1111122,1111122' 
LUMCON,ioos:station:LUMCON:102:1,2016-05-02T04:30:00Z,29.1870,-90.6093,0.0,17.1,201.0,-9999.0,'1111122,1111122,1111122' 
LUMCON,ioos:station:LUMCON:102:1,2016-05-02T04:45:00Z,29.1870,-90.6093,0.0,12.4,205.0,-9999.0,'1111122,1111122,1111122' 
LUMCON,ioos:station:LUMCON:102:1,2016-05-02T05:00:00Z,29.1870,-90.6093,0.0,16.9,206.0,-9999.0,'1111122,1111122,1111122' 
LUMCON,ioos:station:LUMCON:102:1,2016-05-02T05:15:00Z,29.1870,-90.6093,0.0,13.2,208.0,-9999.0,'1111122,1111122,1111122' 
LUMCON,ioos:station:LUMCON:102:1,2016-05-02T05:30:00Z,29.1870,-90.6093,0.0,15.8,221.0,-9999.0,'1111122,1111122,1111122' 
LUMCON,ioos:station:LUMCON:102:1,2016-05-02T05:45:00Z,29.1870,-90.6093,0.0,14.1,223.0,-9999.0,'1111122,1111122,1111122' 
LUMCON,ioos:station:LUMCON:102:1,2016-05-02T06:00:00Z,29.1870,-90.6093,0.0,17.5,216.0,-9999.0,'1111122,1111122,1111122' 
LUMCON,ioos:station:LUMCON:102:1,2016-05-02T06:15:00Z,29.1870,-90.6093,0.0,12.6,216.0,-9999.0,'1111122,1111122,1111122' 
LUMCON,ioos:station:LUMCON:102:1,2016-05-02T06:30:00Z,29.1870,-90.6093,0.0,12.4,214.0,-9999.0,'1111122,1111122,1111122' 
LUMCON,ioos:station:LUMCON:102:1,2016-05-02T06:45:00Z,29.1870,-90.6093,0.0,11.6,213.0,-9999.0,'1111122,1111122,1111122' 
LUMCON,ioos:station:LUMCON:102:1,2016-05-02T07:00:00Z,29.1870,-90.6093,0.0,11.5,216.0,-9999.0,'1111122,1111122,1111122' 
LUMCON,ioos:station:LUMCON:102:1,2016-05-02T07:15:00Z,29.1870,-90.6093,0.0,10.1,218.0,-9999.0,'1111122,1111122,1111122' 
LUMCON,ioos:station:LUMCON:102:1,2016-05-02T07:30:00Z,29.1870,-90.6093,0.0,9.3,213.0,-9999.0,'1111122,1111122,1111122' 
LUMCON,ioos:station:LUMCON:102:1,2016-05-02T07:45:00Z,29.1870,-90.6093,0.0,8.5,211.0,-9999.0,'1111122,1111122,1111122' 
LUMCON,ioos:station:LUMCON:102:1,2016-05-02T08:00:00Z,29.1870,-90.6093,0.0,5.2,234.0,-9999.0,'1111122,1111122,1111122' 
LUMCON,ioos:station:LUMCON:102:1,2016-05-02T08:15:00Z,29.1870,-90.6093,0.0,6.3,214.0,-9999.0,'1111122,1111122,1111122' 
LUMCON,ioos:station:LUMCON:102:1,2016-05-02T08:30:00Z,29.1870,-90.6093,0.0,6.2,213.0,-9999.0,'1111122,1111122,1111122' 
LUMCON,ioos:station:LUMCON:102:1,2016-05-02T08:45:00Z,29.1870,-90.6093,0.0,5.7,206.0,-9999.0,'1111122,1111122,1111122' 
LUMCON,ioos:station:LUMCON:102:1,2016-05-02T09:00:00Z,29.1870,-90.6093,0.0,4.3,206.0,-9999.0,'1111122,1111122,1111122' 
LUMCON,ioos:station:LUMCON:102:1,2016-05-02T09:15:00Z,29.1870,-90.6093,0.0,3.2,184.0,-9999.0,'1111122,1111122,1111122' 
LUMCON,ioos:station:LUMCON:102:1,2016-05-02T09:30:00Z,29.1870,-90.6093,0.0,2.4,171.0,-9999.0,'1111122,1111122,1111122' 
LUMCON,ioos:station:LUMCON:102:1,2016-05-02T09:45:00Z,29.1870,-90.6093,0.0,2.3,222.0,-9999.0,'1111122,1111122,1111122' 
LUMCON,ioos:station:LUMCON:102:1,2016-05-02T10:00:00Z,29.1870,-90.6093,0.0,1.8,206.0,-9999.0,'1111122,1111122,1111122' 
LUMCON,ioos:station:LUMCON:102:1,2016-05-02T10:15:00Z,29.1870,-90.6093,0.0,2.2,160.0,-9999.0,'1111122,1111122,1111122' 
LUMCON,ioos:station:LUMCON:102:1,2016-05-02T10:30:00Z,29.1870,-90.6093,0.0,0.1,182.0,-9999.0,'1111122,1111122,1111122' 
LUMCON,ioos:station:LUMCON:102:1,2016-05-02T10:45:00Z,29.1870,-90.6093,0.0,2.7,90.0,-9999.0,'1111122,1111122,1111122' 
LUMCON,ioos:station:LUMCON:102:1,2016-05-02T11:00:00Z,29.1870,-90.6093,0.0,5.1,59.0,-9999.0,'1111122,1111122,1111122' 
LUMCON,ioos:station:LUMCON:102:1,2016-05-02T11:15:00Z,29.1870,-90.6093,0.0,5.3,89.0,-9999.0,'1111122,1111122,1111122' 
LUMCON,ioos:station:LUMCON:102:1,2016-05-02T11:30:00Z,29.1870,-90.6093,0.0,5.5,86.0,-9999.0,'1111122,1111122,1111122' 
LUMCON,ioos:station:LUMCON:102:1,2016-05-02T11:45:00Z,29.1870,-90.6093,0.0,5.4,84.0,-9999.0,'1111122,1111122,1111122' 
LUMCON,ioos:station:LUMCON:102:1,2016-05-02T12:00:00Z,29.1870,-90.6093,0.0,5.6,89.0,-9999.0,'1111122,1111122,1111122' 
LUMCON,ioos:station:LUMCON:102:1,2016-05-02T12:15:00Z,29.1870,-90.6093,0.0,4.9,98.0,-9999.0,'1111122,1111122,1111122' 
LUMCON,ioos:station:LUMCON:102:1,2016-05-02T12:30:00Z,29.1870,-90.6093,0.0,5.6,98.0,-9999.0,'1111122,1111122,1111122' 
LUMCON,ioos:station:LUMCON:102:1,2016-05-02T12:45:00Z,29.1870,-90.6093,0.0,6.2,102.0,-9999.0,'1111122,1111122,1111122' 
LUMCON,ioos:station:LUMCON:102:1,2016-05-02T13:00:00Z,29.1870,-90.6093,0.0,5.3,97.0,-9999.0,'1111122,1111122,1111122' 
LUMCON,ioos:station:LUMCON:102:1,2016-05-02T13:15:00Z,29.1870,-90.6093,0.0,5.6,114.0,-9999.0,'1111122,1111122,1111122' 
LUMCON,ioos:station:LUMCON:102:1,2016-05-02T13:30:00Z,29.1870,-90.6093,0.0,5.1,113.0,-9999.0,'1111122,1111122,1111122' 
LUMCON,ioos:station:LUMCON:102:1,2016-05-02T13:45:00Z,29.1870,-90.6093,0.0,5.0,123.0,-9999.0,'1111122,1111122,1111122' 
LUMCON,ioos:station:LUMCON:102:1,2016-05-02T14:00:00Z,29.1870,-90.6093,0.0,5.3,125.0,-9999.0,'1111122,1111122,1111122' 
LUMCON,ioos:station:LUMCON:102:1,2016-05-02T14:15:00Z,29.1870,-90.6093,0.0,4.8,126.0,-9999.0,'1111122,1111122,1111122' 
LUMCON,ioos:station:LUMCON:102:1,2016-05-02T14:30:00Z,29.1870,-90.6093,0.0,4.2,117.0,-9999.0,'1111122,1111122,1111122' 
LUMCON,ioos:station:LUMCON:102:1,2016-05-02T14:45:00Z,29.1870,-90.6093,0.0,3.9,125.0,-9999.0,'1111122,1111122,1111122' 
LUMCON,ioos:station:LUMCON:102:1,2016-05-02T15:00:00Z,29.1870,-90.6093,0.0,3.5,113.0,-9999.0,'1111122,1111122,1111122' 
LUMCON,ioos:station:LUMCON:102:1,2016-05-02T15:15:00Z,29.1870,-90.6093,0.0,3.1,113.0,-9999.0,'1111122,1111122,1111122' 
LUMCON,ioos:station:LUMCON:102:1,2016-05-02T15:30:00Z,29.1870,-90.6093,0.0,3.5,106.0,-9999.0,'1111122,1111122,1111122' 
LUMCON,ioos:station:LUMCON:102:1,2016-05-02T15:45:00Z,29.1870,-90.6093,0.0,3.4,98.0,-9999.0,'1111122,1111122,1111122' 
LUMCON,ioos:station:LUMCON:102:1,2016-05-02T16:00:00Z,29.1870,-90.6093,0.0,3.4,78.0,-9999.0,'1111122,1111122,1111122' 
LUMCON,ioos:station:LUMCON:102:1,2016-05-02T16:15:00Z,29.1870,-90.6093,0.0,4.1,67.0,-9999.0,'1111122,1111122,1111122' 
LUMCON,ioos:station:LUMCON:102:1,2016-05-02T16:30:00Z,29.1870,-90.6093,0.0,4.3,71.0,-9999.0,'1111122,1111122,1111122' 
LUMCON,ioos:station:LUMCON:102:1,2016-05-02T16:45:00Z,29.1870,-90.6093,0.0,5.1,80.0,-9999.0,'1111122,1111122,1111122' 
LUMCON,ioos:station:LUMCON:102:1,2016-05-02T17:00:00Z,29.1870,-90.6093,0.0,3.7,79.0,-9999.0,'1111122,1111122,1111122' 
LUMCON,ioos:station:LUMCON:102:1,2016-05-02T17:15:00Z,29.1870,-90.6093,0.0,4.0,73.0,-9999.0,'1111122,1111122,1111122' 
LUMCON,ioos:station:LUMCON:102:1,2016-05-02T17:30:00Z,29.1870,-90.6093,0.0,3.2,63.0,-9999.0,'1111122,1111122,1111122' 
LUMCON,ioos:station:LUMCON:102:1,2016-05-02T17:45:00Z,29.1870,-90.6093,0.0,3.8,64.0,-9999.0,'1111122,1111122,1111122' 
LUMCON,ioos:station:LUMCON:102:1,2016-05-02T18:00:00Z,29.1870,-90.6093,0.0,4.2,69.0,-9999.0,'1111122,1111122,1111122' 
LUMCON,ioos:station:LUMCON:102:1,2016-05-02T18:30:00Z,29.1870,-90.6093,0.0,3.8,67.0,-9999.0,'1111122,1111122,1111122' 
LUMCON,ioos:station:LUMCON:102:1,2016-05-02T18:45:00Z,29.1870,-90.6093,0.0,4.0,53.0,-9999.0,'1111122,1111122,1111122' 
LUMCON,ioos:station:LUMCON:102:1,2016-05-02T19:15:00Z,29.1870,-90.6093,0.0,3.4,58.0,-9999.0,'1111122,1111122,1111122' 
LUMCON,ioos:station:LUMCON:102:1,2016-05-02T20:00:00Z,29.1870,-90.6093,0.0,2.8,19.0,-9999.0,'1111122,1111122,1111122' 
LUMCON,ioos:station:LUMCON:102:1,2016-05-02T20:15:00Z,29.1870,-90.6093,0.0,2.6,10.0,-9999.0,'1111122,1111122,1111122' 
LUMCON,ioos:station:LUMCON:102:1,2016-05-02T20:30:00Z,29.1870,-90.6093,0.0,1.6,21.0,-9999.0,'1111122,1111122,1111122' 
LUMCON,ioos:station:LUMCON:102:1,2016-05-02T20:45:00Z,29.1870,-90.6093,0.0,1.6,353.0,-9999.0,'1111122,1111122,1111122' 
LUMCON,ioos:station:LUMCON:102:1,2016-05-02T21:00:00Z,29.1870,-90.6093,0.0,3.0,214.0,-9999.0,'1111122,1111122,1111122' 
LUMCON,ioos:station:LUMCON:102:1,2016-05-02T21:15:00Z,29.1870,-90.6093,0.0,8.1,188.0,-9999.0,'1111122,1111122,1111122' 
LUMCON,ioos:station:LUMCON:102:1,2016-05-02T21:30:00Z,29.1870,-90.6093,0.0,6.6,178.0,-9999.0,'1111122,1111122,1111122' 
LUMCON,ioos:station:LUMCON:102:1,2016-05-02T21:45:00Z,29.1870,-90.6093,0.0,9.5,177.0,-9999.0,'1111122,1111122,1111122' 
LUMCON,ioos:station:LUMCON:102:1,2016-05-02T22:00:00Z,29.1870,-90.6093,0.0,5.9,172.0,-9999.0,'1111122,1111122,1111122' 
LUMCON,ioos:station:LUMCON:102:1,2016-05-02T22:15:00Z,29.1870,-90.6093,0.0,4.9,176.0,-9999.0,'1111122,1111122,1111122' 
LUMCON,ioos:station:LUMCON:102:1,2016-05-02T22:30:00Z,29.1870,-90.6093,0.0,6.7,159.0,-9999.0,'1111122,1111122,1111122' 
LUMCON,ioos:station:LUMCON:102:1,2016-05-02T22:45:00Z,29.1870,-90.6093,0.0,6.0,158.0,-9999.0,'1111122,1111122,1111122' 
LUMCON,ioos:station:LUMCON:102:1,2016-05-02T23:00:00Z,29.1870,-90.6093,0.0,4.1,159.0,-9999.0,'1111122,1111122,1111122' 
LUMCON,ioos:station:LUMCON:102:1,2016-05-02T23:15:00Z,29.1870,-90.6093,0.0,4.4,170.0,-9999.0,'1111122,1111122,1111122' 
LUMCON,ioos:station:LUMCON:102:1,2016-05-02T23:30:00Z,29.1870,-90.6093,0.0,4.3,163.0,-9999.0,'1111122,1111122,1111122' 
LUMCON,ioos:station:LUMCON:102:1,2016-05-02T23:45:00Z,29.1870,-90.6093,0.0,3.3,164.0,-9999.0,'1111122,1111122,1111122' 
LUMCON,ioos:station:LUMCON:102:1,2016-05-03T00:00:00Z,29.1870,-90.6093,0.0,3.3,135.0,-9999.0,'1111122,1111122,1111122' 
LUMCON,ioos:station:LUMCON:102:1,2016-05-03T00:15:00Z,29.1870,-90.6093,0.0,2.3,113.0,-9999.0,'1111122,1111122,1111122' 
LUMCON,ioos:station:LUMCON:102:1,2016-05-03T00:30:00Z,29.1870,-90.6093,0.0,2.3,103.0,-9999.0,'1111122,1111122,1111122' 
LUMCON,ioos:station:LUMCON:102:1,2016-05-03T00:45:00Z,29.1870,-90.6093,0.0,1.5,60.0,-9999.0,'1111122,1111122,1111122' 
LUMCON,ioos:station:LUMCON:102:1,2016-05-03T01:00:00Z,29.1870,-90.6093,0.0,2.1,55.0,-9999.0,'1111122,1111122,1111122' 
LUMCON,ioos:station:LUMCON:102:1,2016-05-03T01:15:00Z,29.1870,-90.6093,0.0,1.5,57.0,-9999.0,'1111122,1111122,1111122' 
LUMCON,ioos:station:LUMCON:102:1,2016-05-03T01:30:00Z,29.1870,-90.6093,0.0,1.0,64.0,-9999.0,'1111122,1111122,1111122' 
LUMCON,ioos:station:LUMCON:102:1,2016-05-03T01:45:00Z,29.1870,-90.6093,0.0,2.1,38.0,-9999.0,'1111122,1111122,1111122' 
LUMCON,ioos:station:LUMCON:102:1,2016-05-03T02:00:00Z,29.1870,-90.6093,0.0,1.7,15.0,-9999.0,'1111122,1111122,1111122' 
LUMCON,ioos:station:LUMCON:102:1,2016-05-03T02:15:00Z,29.1870,-90.6093,0.0,3.1,47.0,-9999.0,'1111122,1111122,1111122' 
LUMCON,ioos:station:LUMCON:102:1,2016-05-03T02:30:00Z,29.1870,-90.6093,0.0,3.3,45.0,-9999.0,'1111122,1111122,1111122' 
LUMCON,ioos:station:LUMCON:102:1,2016-05-03T02:45:00Z,29.1870,-90.6093,0.0,3.9,69.0,-9999.0,'1111122,1111122,1111122' 
LUMCON,ioos:station:LUMCON:102:1,2016-05-03T03:00:00Z,29.1870,-90.6093,0.0,4.3,66.0,-9999.0,'1111122,1111122,1111122' 
LUMCON,ioos:station:LUMCON:102:1,2016-05-03T03:15:00Z,29.1870,-90.6093,0.0,5.0,68.0,-9999.0,'1111122,1111122,1111122' 
LUMCON,ioos:station:LUMCON:102:1,2016-05-03T03:30:00Z,29.1870,-90.6093,0.0,5.3,60.0,-9999.0,'1111122,1111122,1111122' 